When you browse on this site, cookies collect data to enhance your experience and personalize the content and advertising you see.
Visit our Privacy Policy to learn more. By continuing to use the site, you agree to this use of cookies and data.
  • In Spain
  • List of Countries
  • For 7 days
  • Water Temperature
  • Weather Map
  • Weather Widgets
  • user-avatar
    Login

    Hourly Weather Mayrhofen

    Today, 10 April, Friday

    Time Temperature Precipitation Wind Pressure Humidity
    00:00 +3°C° 0 mm 1 mps 620 mmHg 86%
    01:00 +2°C° 0 mm 1 mps 620 mmHg 85%
    02:00 +2°C° 0 mm 1 mps 620 mmHg 83%
    03:00 +2°C° 0 mm 1 mps 619 mmHg 82%
    04:00 +2°C° 0 mm 1 mps 619 mmHg 81%
    05:00 +2°C° 0 mm 1 mps 620 mmHg 79%
    06:00 +3°C° 0 mm 1 mps 620 mmHg 77%
    07:00 +5°C° 0 mm 1 mps 621 mmHg 75%
    08:00 +6°C° 0 mm 1 mps 622 mmHg 72%
    09:00 +7°C° 0 mm 0 mps 622 mmHg 68%
    10:00 +9°C° 0 mm 0 mps 623 mmHg 64%
    11:00 +10°C° 0 mm 0 mps 623 mmHg 59%
    12:00 +11°C° 0 mm 0 mps 623 mmHg 53%
    13:00 +11°C° 0 mm 0 mps 623 mmHg 47%
    14:00 +11°C° 0 mm 0 mps 623 mmHg 47%
    15:00 +11°C° 0 mm 0 mps 622 mmHg 47%
    16:00 +11°C° 0 mm 0 mps 622 mmHg 48%
    17:00 +9°C° 0 mm 0 mps 621 mmHg 56%
    18:00 +7°C° 0 mm 0 mps 620 mmHg 65%
    19:00 +5°C° 0 mm 0 mps 619 mmHg 74%
    20:00 +4°C° 0 mm 0 mps 619 mmHg 77%
    21:00 +3°C° 0 mm 0 mps 620 mmHg 79%
    22:00 +3°C° 0 mm 0 mps 620 mmHg 82%
    23:00 +3°C° 0 mm 1 mps 620 mmHg 84%

    Tomorrow, 11 April, Saturday

    Time Temperature Precipitation Wind Pressure Humidity
    00:00 +3°C° 0 mm 1 mps 620 mmHg 85%
    01:00 +3°C° 0 mm 1 mps 620 mmHg 87%
    02:00 +3°C° 0 mm 1 mps 619 mmHg 87%
    03:00 +2°C° 0 mm 1 mps 619 mmHg 87%
    04:00 +2°C° 0 mm 1 mps 619 mmHg 88%
    05:00 +3°C° 0 mm 1 mps 620 mmHg 86%
    06:00 +4°C° 0 mm 1 mps 620 mmHg 84%
    07:00 +5°C° 0 mm 1 mps 621 mmHg 82%
    08:00 +7°C° 0 mm 1 mps 621 mmHg 74%
    09:00 +9°C° 0 mm 1 mps 622 mmHg 67%
    10:00 +11°C° 0 mm 1 mps 623 mmHg 60%
    11:00 +11°C° 0 mm 1 mps 623 mmHg 57%
    12:00 +12°C° 0 mm 1 mps 623 mmHg 54%
    13:00 +12°C° 0 mm 1 mps 623 mmHg 51%
    14:00 +12°C° 0.1 mm 1 mps 622 mmHg 53%
    15:00 +12°C° 0.1 mm 1 mps 622 mmHg 55%
    16:00 +12°C° 0.1 mm 1 mps 621 mmHg 56%
    17:00 +10°C° 0.1 mm 1 mps 621 mmHg 66%
    18:00 +8°C° 0.1 mm 1 mps 620 mmHg 76%
    19:00 +5°C° 0.1 mm 0 mps 619 mmHg 86%
    20:00 +4°C° 0 mm 0 mps 619 mmHg 87%
    21:00 +4°C° 0 mm 0 mps 619 mmHg 89%
    22:00 +3°C° 0 mm 0 mps 620 mmHg 90%
    23:00 +3°C° 0 mm 0 mps 619 mmHg 91%

    Day after tomorrow, 12 April, Sunday

    Time Temperature Precipitation Wind Pressure Humidity
    00:00 +4°C° 0 mm 1 mps 619 mmHg 91%
    01:00 +4°C° 0 mm 1 mps 619 mmHg 91%
    02:00 +4°C° 0 mm 1 mps 619 mmHg 91%
    03:00 +3°C° 0 mm 1 mps 619 mmHg 91%
    04:00 +3°C° 0 mm 1 mps 618 mmHg 92%
    05:00 +4°C° 0.1 mm 1 mps 619 mmHg 90%
    06:00 +5°C° 0.1 mm 1 mps 619 mmHg 88%
    07:00 +6°C° 0.1 mm 1 mps 619 mmHg 85%
    08:00 +7°C° 0.1 mm 1 mps 620 mmHg 79%
    09:00 +9°C° 0.1 mm 1 mps 620 mmHg 72%
    10:00 +11°C° 0.1 mm 1 mps 620 mmHg 65%
    11:00 +12°C° 0.3 mm 1 mps 620 mmHg 62%
    12:00 +12°C° 0.3 mm 1 mps 620 mmHg 59%
    13:00 +13°C° 0.3 mm 2 mps 620 mmHg 56%
    14:00 +12°C° 0.8 mm 2 mps 619 mmHg 58%
    15:00 +10°C° 0.8 mm 2 mps 618 mmHg 61%
    16:00 +10°C° 0.8 mm 2 mps 618 mmHg 64%
    17:00 +8°C° 0.8 mm 2 mps 617 mmHg 71%
    18:00 +7°C° 0.8 mm 1 mps 616 mmHg 79%
    19:00 +5°C° 0.8 mm 1 mps 615 mmHg 86%
    20:00 +5°C° 0.2 mm 1 mps 615 mmHg 88%
    21:00 +5°C° 0.2 mm 1 mps 615 mmHg 89%
    22:00 +3°C° 0.2 mm 2 mps 615 mmHg 90%
    23:00 +3°C° 0.1 mm 2 mps 615 mmHg 90%

    13 April, Monday

    Time Temperature Precipitation Wind Pressure Humidity
    00:00 +4°C° 0.1 mm 1 mps 615 mmHg 91%
    01:00 +4°C° 0.1 mm 1 mps 615 mmHg 91%
    02:00 +3°C° 0.1 mm 1 mps 614 mmHg 91%
    03:00 +3°C° 0.1 mm 1 mps 614 mmHg 91%
    04:00 +3°C° 0.1 mm 1 mps 614 mmHg 91%
    05:00 +3°C° 0 mm 1 mps 614 mmHg 89%
    06:00 +4°C° 0 mm 1 mps 615 mmHg 86%
    07:00 +5°C° 0 mm 1 mps 615 mmHg 84%
    08:00 +6°C° 0.2 mm 1 mps 615 mmHg 80%
    09:00 +7°C° 0.2 mm 1 mps 616 mmHg 75%
    10:00 +8°C° 0.2 mm 1 mps 616 mmHg 70%
    11:00 +9°C° 0.7 mm 1 mps 616 mmHg 68%
    12:00 +9°C° 0.7 mm 1 mps 616 mmHg 65%
    13:00 +10°C° 0.7 mm 1 mps 616 mmHg 63%
    14:00 +9°C° 0.7 mm 1 mps 616 mmHg 67%
    15:00 +9°C° 0.7 mm 1 mps 615 mmHg 70%
    16:00 +8°C° 0.7 mm 1 mps 615 mmHg 74%
    17:00 +7°C° 0.5 mm 1 mps 615 mmHg 80%
    18:00 +6°C° 0.5 mm 1 mps 614 mmHg 87%
    19:00 +5°C° 0.5 mm 1 mps 614 mmHg 93%
    20:00 +5°C° 0.4 mm 1 mps 614 mmHg 94%
    21:00 +4°C° 0.4 mm 1 mps 615 mmHg 95%
    22:00 +4°C° 0.4 mm 1 mps 615 mmHg 96%
    23:00 +3°C° 0 mm 1 mps 615 mmHg 96%

    14 April, Tuesday

    Time Temperature Precipitation Wind Pressure Humidity
    00:00 +3°C° 0 mm 1 mps 615 mmHg 95%
    01:00 +2°C° 0 mm 1 mps 614 mmHg 95%
    02:00 +2°C° 0 mm 1 mps 614 mmHg 95%
    03:00 +2°C° 0 mm 1 mps 614 mmHg 94%
    04:00 +1°C° 0 mm 1 mps 614 mmHg 94%
    05:00 +2°C° 0 mm 1 mps 614 mmHg 92%
    06:00 +3°C° 0 mm 1 mps 615 mmHg 90%
    07:00 +3°C° 0 mm 1 mps 615 mmHg 88%
    08:00 +5°C° 0 mm 1 mps 615 mmHg 82%
    09:00 +6°C° 0 mm 1 mps 616 mmHg 76%
    10:00 +8°C° 0 mm 1 mps 616 mmHg 70%
    11:00 +8°C° 0 mm 1 mps 616 mmHg 68%
    12:00 +8°C° 0 mm 2 mps 616 mmHg 65%
    13:00 +8°C° 0 mm 2 mps 616 mmHg 62%
    14:00 +8°C° 0 mm 2 mps 616 mmHg 63%
    15:00 +8°C° 0 mm 2 mps 616 mmHg 63%
    16:00 +8°C° 0 mm 2 mps 615 mmHg 64%
    17:00 +6°C° 0 mm 2 mps 615 mmHg 72%
    18:00 +6°C° 0 mm 1 mps 614 mmHg 80%
    19:00 +4°C° 0 mm 1 mps 614 mmHg 88%
    20:00 +4°C° 0 mm 1 mps 614 mmHg 89%
    21:00 +4°C° 0 mm 1 mps 614 mmHg 91%
    22:00 +3°C° 0 mm 1 mps 614 mmHg 93%
    23:00 +2°C° 0 mm 2 mps 614 mmHg 94%

    15 April, Wednesday

    Time Temperature Precipitation Wind Pressure Humidity
    00:00 +3°C° 0 mm 2 mps 614 mmHg 94%
    01:00 +3°C° 0 mm 2 mps 615 mmHg 94%
    02:00 +3°C° 0 mm 2 mps 615 mmHg 94%
    03:00 +2°C° 0 mm 2 mps 615 mmHg 94%
    04:00 +2°C° 0 mm 2 mps 614 mmHg 94%
    05:00 +3°C° 0 mm 2 mps 615 mmHg 91%
    06:00 +3°C° 0 mm 2 mps 615 mmHg 88%
    07:00 +4°C° 0 mm 2 mps 615 mmHg 85%
    08:00 +6°C° 0 mm 2 mps 615 mmHg 77%
    09:00 +7°C° 0 mm 2 mps 616 mmHg 69%
    10:00 +9°C° 0 mm 2 mps 616 mmHg 61%
    11:00 +10°C° 0 mm 2 mps 617 mmHg 56%
    12:00 +12°C° 0 mm 2 mps 617 mmHg 51%
    13:00 +13°C° 0 mm 2 mps 617 mmHg 46%
    14:00 +13°C° 0 mm 2 mps 617 mmHg 48%
    15:00 +13°C° 0 mm 2 mps 617 mmHg 49%
    16:00 +12°C° 0 mm 3 mps 617 mmHg 50%
    17:00 +10°C° 0 mm 2 mps 616 mmHg 60%
    18:00 +8°C° 0 mm 2 mps 615 mmHg 70%
    19:00 +6°C° 0 mm 2 mps 614 mmHg 81%
    20:00 +5°C° 0 mm 2 mps 614 mmHg 84%
    21:00 +5°C° 0 mm 2 mps 614 mmHg 87%
    22:00 +3°C° 0 mm 3 mps 614 mmHg 90%
    23:00 +3°C° 0 mm 3 mps 615 mmHg 90%
    Show more